Location: Unspecified
(0.0000°N, 0.0000°E)
Time: 14:18:00
(UTC+00:00)

Courier 1B - All Passes

Search period start: 25 January 2015 00:00
Search period end: 04 February 2015 00:00
Orbit: 963 x 1209 km, 28.3° (Epoch: 24 January)

Date Brightness Start Highest point End Pass type
(mag) Time Alt. Az. Time Alt. Az. Time Alt. Az.
25 Jan - 01:11:45 10° NNW 01:15:51 15° NNE 01:20:12 10° NE night (unlit)
25 Jan - 03:03:44 10° NW 03:11:06 44° NNE 03:18:20 10° E visible
25 Jan - 04:57:57 10° WNW 05:05:36 60° SSW 05:12:52 10° SE visible
25 Jan - 06:55:18 10° WSW 07:00:19 18° SSW 07:04:56 10° SSE daylight
25 Jan - 14:38:03 10° SSW 14:43:44 33° SSE 14:49:35 10° E daylight
25 Jan - 16:31:20 10° WSW 16:37:50 68° NNW 16:44:37 10° NE daylight
25 Jan - 18:27:32 10° WNW 18:32:23 20° NNW 18:37:16 10° NNE visible
26 Jan - 00:19:20 10° N 00:21:30 11° NNE 00:23:58 10° NE night (unlit)
26 Jan - 02:10:11 10° NW 02:17:01 33° NNE 02:23:54 10° E visible
26 Jan - 04:03:47 10° WNW 04:11:39 81° SSW 04:19:13 10° ESE visible
26 Jan - 06:00:05 10° W 06:06:14 25° SSW 06:12:01 10° SSE daylight
26 Jan - 13:44:55 10° SSW 13:49:54 23° SSE 13:55:00 10° ESE daylight
26 Jan - 15:37:36 10° WSW 15:44:06 86° SSE 15:50:50 10° ENE daylight
26 Jan - 17:32:55 10° W 17:38:24 27° NNW 17:44:00 10° NNE daylight
27 Jan - 01:16:47 10° NNW 01:22:53 25° NNE 01:29:08 10° ENE night (unlit)
27 Jan - 03:09:48 10° NW 03:17:40 76° NNE 03:25:23 10° ESE visible
27 Jan - 05:05:14 10° W 05:12:12 35° SSW 05:18:49 10° SE visible
27 Jan - 07:05:33 10° SW 07:07:26 11° SSW 07:09:01 10° S daylight
27 Jan - 12:52:00 10° SSW 12:55:59 17° SSE 13:00:06 10° ESE daylight
27 Jan - 14:44:02 10° SW 14:50:24 61° SSE 14:56:54 10° ENE daylight
27 Jan - 16:38:35 10° W 16:44:31 36° NNW 16:50:37 10° NE daylight
27 Jan - 18:37:28 10° NW 18:39:33 11° NNW 18:41:25 10° N visible
28 Jan - 00:23:39 10° NNW 00:28:40 19° NNE 00:34:00 10° ENE night (unlit)
28 Jan - 02:16:01 10° NW 02:23:41 57° NNE 02:31:18 10° ESE visible
28 Jan - 04:10:41 10° WNW 04:18:11 47° SSW 04:25:26 10° SE visible
28 Jan - 06:08:55 10° WSW 06:13:12 15° SSW 06:17:07 10° S daylight
28 Jan - 11:59:28 10° S 12:01:57 12° SSE 12:04:39 10° SE daylight
28 Jan - 13:50:35 10° SW 13:56:41 43° SSE 14:02:49 10° E daylight
28 Jan - 15:44:28 10° WSW 15:50:44 50° NNW 15:57:08 10° NE daylight
28 Jan - 17:41:44 10° NW 17:45:25 15° NNW 17:48:59 10° N daylight
28 Jan - 23:30:50 10° N 23:34:25 14° NNE 23:38:19 10° NE night (unlit)
29 Jan - 01:22:24 10° NW 01:29:38 42° NNE 01:36:59 10° E visible
29 Jan - 03:16:23 10° WNW 03:24:11 64° SSW 03:31:50 10° SE visible
29 Jan - 05:13:23 10° WSW 05:19:00 21° SSW 05:24:18 10° SSE visible
29 Jan - 12:57:15 10° SSW 13:02:54 31° SSE 13:08:32 10° E daylight
29 Jan - 14:50:33 10° WSW 14:57:01 72° NNW 15:03:32 10° NE daylight
29 Jan - 16:46:43 10° WNW 16:51:24 20° NNW 16:56:02 10° NNE daylight
29 Jan - 22:39:35 10° NNE 22:40:06 10° NNE 22:40:55 10° NNE night (unlit)
30 Jan - 00:28:59 10° NNW 00:35:34 31° NNE 00:42:23 10° E night (unlit)
30 Jan - 02:22:19 10° WNW 02:30:12 86° SSW 02:38:03 10° ESE visible
30 Jan - 04:18:19 10° W 04:24:52 28° SSW 04:31:11 10° SSE visible
30 Jan - 12:04:03 10° SSW 12:09:02 22° SSE 12:14:01 10° ESE daylight
30 Jan - 13:56:47 10° WSW 14:03:19 81° SSE 14:09:49 10° ENE daylight
30 Jan - 15:52:05 10° W 15:57:29 27° NNW 16:02:54 10° NNE daylight
30 Jan - 23:35:46 10° NNW 23:41:27 23° NNE 23:47:27 10° ENE night (unlit)
31 Jan - 01:28:28 10° NW 01:36:12 72° NNE 01:44:04 10° ESE visible
31 Jan - 03:23:36 10° W 03:30:47 38° SSW 03:37:49 10° SE visible
31 Jan - 05:22:54 10° SW 05:26:06 13° SSW 05:28:59 10° S visible
31 Jan - 11:11:00 10° SSW 11:15:03 17° SSE 11:19:10 10° ESE daylight
31 Jan - 13:03:09 10° SW 13:09:37 57° SSE 13:15:58 10° ENE daylight
31 Jan - 14:57:43 10° W 15:03:41 38° NNW 15:09:37 10° NE daylight
31 Jan - 16:56:43 10° NW 16:58:31 11° NNW 17:00:05 10° N daylight
31 Jan - 22:42:50 10° NNW 22:47:17 17° NNE 22:52:06 10° ENE night (unlit)
01 Feb - 00:34:49 10° NW 00:42:12 53° NNE 00:49:51 10° ESE night (unlit)
01 Feb - 02:29:10 10° WNW 02:36:44 51° SSW 02:44:17 10° SE visible
01 Feb - 04:26:56 10° WSW 04:31:49 17° SSW 04:36:25 10° SSE visible
01 Feb - 10:18:17 10° S 10:20:57 13° SSE 10:23:48 10° SE daylight
01 Feb - 12:09:37 10° SW 12:15:52 41° SSE 12:21:56 10° E daylight
01 Feb - 14:03:34 10° WSW 14:09:56 53° NNW 14:16:13 10° NE daylight
01 Feb - 16:00:49 10° WNW 16:04:27 15° NNW 16:07:56 10° N daylight
01 Feb - 21:50:27 10° N 21:53:04 12° NNE 21:56:02 10° NE night (unlit)
01 Feb - 23:41:21 10° NW 23:48:12 39° NNE 23:55:24 10° E night (unlit)
02 Feb - 01:35:02 10° WNW 01:42:43 68° SSW 01:50:33 10° SE visible
02 Feb - 03:31:37 10° WSW 03:37:35 23° SSW 03:43:21 10° SSE visible
02 Feb - 11:16:11 10° SSW 11:22:01 30° SSE 11:27:41 10° E daylight
02 Feb - 13:09:35 10° WSW 13:16:14 77° NNW 13:22:42 10° NE daylight
02 Feb - 15:05:45 10° WNW 15:10:30 21° NNW 15:15:07 10° NNE daylight
02 Feb - 22:48:05 10° NNW 22:54:10 28° NNE 23:00:40 10° E night (unlit)
03 Feb - 00:41:06 10° WNW 00:48:44 90° NE 00:56:39 10° ESE night (unlit)
03 Feb - 02:36:44 10° W 02:43:26 30° SSW 02:50:03 10° SSE visible
03 Feb - 04:37:51 10° SSW 04:39:04 10° SSW 04:39:57 10° S visible
03 Feb - 10:22:52 10° SSW 10:28:04 22° SSE 10:33:11 10° ESE daylight
03 Feb - 12:15:44 10° SW 12:22:31 77° SSE 12:29:02 10° ENE daylight
03 Feb - 14:11:04 10° W 14:16:39 29° NNW 14:22:05 10° NNE daylight
03 Feb - 21:55:03 10° NNW 22:00:07 21° NNE 22:05:35 10° ENE night (unlit)
